Lapse_Rate
5.6 6.5 6.5 6.5 6.5 6.5 6.5 6.5 6.5 6.5 6.5 6.5 6.5 6.5 6.5 6.1 5.5 5.6 4.9 4.9 4.8 4.5 3.5 5.7 5.7 5.1 5.3 5.3 5.8 5.4 4.8 5.0 5.3 5.3 5.1 5.5 5.9 5.4 5.2 5.1 4.7 3.6 3.5 3.3
6.5 6.5 6.5 6.5 6.5 6.5 6.5 6.5 6.5 6.5 6.5 6.5 6.5 6.5 6.5 6.5 6.2 5.0 4.9 4.6 4.4 4.5 4.2 5.2 5.3 5.0 5.6 5.4 6.0 5.2 5.1 5.1 5.3 5.9 5.5 4.8 5.1 4.9 5.7 4.8 4.6 4.6 3.6 3.5
6.5 6.5 6.5 6.5 6.5 6.5 6.5 6.5 6.5 6.5 6.5 6.5 6.5 6.5 6.5 6.5 6.0 5.6 4.5 3.8 3.8 4.2 5.2 3.9 4.1 5.2 5.6 5.2 5.4 5.5 5.2 5.2 5.8 6.5 4.8 4.9 4.6 4.3 4.3 3.9 3.4 3.3 3.8 3.5
6.5 6.5 6.5 6.5 6.5 6.5 6.5 6.5 6.5 6.5 6.5 6.5 6.5 6.5 6.5 6.5 6.5 6.5 5.4 3.6 3.1 3.8 4.0 3.2 2.7 2.8 4.2 3.7 5.5 5.8 5.6 5.2 6.0 6.5 5.7 5.3 6.1 6.0 4.8 3.5 2.9 2.0 3.2 3.2
6.5 6.5 6.5 6.5 6.5 6.5 6.5 6.5 6.5 6.5 6.5 6.5 6.5 6.5 6.5 6.5 6.5 6.5 6.5 3.5 2.4 2.5 2.7 2.0 1.5 1.2 1.9 3.3 3.1 3.0 4.2 4.4 5.2 5.7 6.6 5.6 5.1 4.5 3.5 3.3 3.2 2.2 2.5 3.1
6.5 6.1 6.5 6.5 6.5 6.5 6.5 6.5 6.5 6.5 6.5 6.5 6.5 6.5 6.5 6.5 6.5 6.5 6.4 3.5 1.9 1.3 2.1 2.3 1.4 0.7 0.7 1.3 2.0 2.1 3.5 4.3 5.1 5.2 4.3 4.8 3.9 3.9 3.2 2.6 3.5 3.3 2.6 2.3
6.5 6.5 6.5 6.5 6.5 6.5 6.5 6.5 6.5 6.5 6.5 6.5 6.5 6.5 6.5 6.5 6.5 6.5 6.5 4.0 1.7 1.3 1.2 1.9 1.3 0.7 0.2 -0.7 -0.3 1.2 2.7 4.0 4.6 4.8 4.7 4.0 4.5 3.2 3.8 3.0 3.6 1.9 2.3 1.6
6.5 6.5 6.5 6.5 6.5 6.5 6.5 6.5 6.5 6.5 6.5 6.5 6.5 6.5 6.5 6.5 6.2 4.7 3.7 2.8 1.4 1.6 1.5 0.9 1.4 1.1 0.4 -0.1 -0.8 -0.2 0.8 2.7 3.5 3.8 4.4 4.8 3.6 4.4 4.1 3.5 2.9 1.9 1.6 1.4
6.5 6.5 6.5 6.5 6.5 6.5 6.5 6.5 6.5 6.5 6.5 6.5 6.5 6.5 6.5 6.5 6.5 6.6 5.5 4.4 2.8 0.7 0.7 0.7 1.2 1.2 0.9 0.3 -0.2 0.0 0.5 1.1 1.9 2.2 3.3 4.3 3.8 3.7 3.8 3.2 2.5 1.9 1.7 2.0
6.5 6.5 6.5 6.5 6.4 6.5 6.5 6.5 6.5 6.5 6.5 6.5 6.5 6.5 6.5 6.5 6.5 6.5 6.5 5.9 3.0 1.8 1.6 1.5 1.3 1.0 1.0 1.1 0.8 0.6 1.3 1.6 2.1 2.2 2.6 3.7 3.5 3.2 3.1 2.9 2.4 2.1 2.0 1.5
6.5 6.5 6.5 6.5 6.5 6.5 6.5 6.5 6.5 6.5 6.5 6.5 6.5 6.5 6.5 6.5 6.5 6.5 6.5 4.0 2.4 0.5 0.5 1.2 0.9 0.8 1.4 1.4 1.2 0.9 1.3 1.8 2.0 2.7 3.0 2.7 2.8 2.8 2.5 2.8 2.7 2.4 2.1 1.7
6.5 6.5 6.5 6.5 6.5 6.5 6.5 6.5 6.5 6.5 6.5 6.5 6.5 6.5 6.5 6.5 6.5 6.5 5.9 3.3 1.9 0.1 -0.2 0.6 0.9 1.5 1.4 1.7 1.4 1.2 2.0 2.6 2.7 3.0 3.7 2.8 2.8 2.9 2.8 3.0 3.2 3.7 2.9 1.5
6.5 6.5 6.5 6.5 6.5 6.5 6.5 6.5 6.5 6.5 6.5 6.5 6.5 6.5 6.5 6.5 6.5 5.4 5.4 3.4 1.4 0.6 0.7 0.6 0.9 0.5 1.3 1.3 1.5 2.0 2.4 2.6 3.0 3.5 3.8 3.8 4.0 4.0 2.9 3.1 3.6 3.0 2.7 2.3
6.4 6.5 6.5 6.5 6.5 6.5 6.5 6.5 6.5 6.5 6.5 6.5 6.5 6.5 6.5 6.5 6.5 6.5 4.6 2.4 1.4 0.1 0.0 0.0 0.4 -1.0 -0.3 -0.0 0.4 1.3 1.9 2.5 3.1 3.3 4.1 4.2 3.7 3.9 4.0 2.3 1.7 2.1 2.6 3.2
6.5 6.5 6.5 6.5 6.5 6.5 6.5 6.5 6.5 6.5 6.5 6.5 6.5 6.5 6.5 6.5 6.5 6.3 3.2 3.7 2.5 2.2 0.5 -0.7 -0.9 -1.3 -1.2 -1.7 -1.3 -0.3 0.3 1.0 2.5 3.3 3.8 3.7 3.8 3.6 2.7 1.7 1.9 2.3 2.2 2.8
6.5 6.5 6.5 6.5 6.5 6.5 6.5 6.5 6.5 6.5 6.5 6.5 6.5 6.5 6.5 5.7 5.0 5.6 5.0 3.6 3.2 1.7 1.3 -0.5 -1.1 -1.2 -1.9 -2.4 -2.9 -2.6 -2.3 -0.9 0.9 2.1 2.8 3.5 2.8 2.1 1.9 1.5 1.3 1.5 1.3 1.3
6.5 6.5 6.5 6.5 6.5 6.5 6.5 6.5 6.5 6.5 6.5 6.5 6.5 6.5 6.5 6.5 6.5 6.0 4.2 3.7 2.4 1.2 1.3 0.9 0.6 -0.3 -0.8 -3.2 -4.1 -4.0 -3.4 -2.4 -0.0 1.3 1.2 0.7 0.4 0.6 0.4 0.3 0.4 0.3 -0.5 -0.4
6.5 6.5 6.5 6.5 6.5 6.5 6.5 6.5 6.5 6.5 6.5 6.5 6.5 6.5 6.5 6.4 5.4 3.7 3.0 4.0 2.1 1.6 1.1 -0.3 -0.0 -1.5 -4.1 -4.3 -4.6 -4.1 -3.4 -2.4 -1.8 -0.8 -0.4 -0.4 -0.3 -0.3 -0.5 0.2 -0.1 -1.2 -1.1 -1.3
6.5 6.5 6.5 6.5 6.5 6.5 6.5 6.5 6.5 6.5 6.5 6.5 6.5 6.5 6.5 5.9 4.7 3.9 1.0 0.3 1.7 1.0 0.8 -0.9 -1.3 -5.2 -4.2 -2.9 -3.4 -3.2 -3.1 -2.9 -2.2 -1.4 -1.0 -0.3 -0.1 -0.0 0.1 -0.3 -0.8 -1.3 -1.2 -1.1
6.5 6.5 6.5 6.5 6.5 6.5 6.5 6.5 6.4 6.5 6.5 6.5 6.5 6.5 6.5 6.0 6.5 6.5 2.3 3.0 2.1 -0.5 -1.6 -4.2 -5.3 -4.7 -3.4 -2.7 -2.6 -2.4 -2.5 -2.1 -1.7 -1.0 0.8 0.5 0.8 0.6 -0.6 -1.5 -1.0 -0.9 -0.4 -0.4
6.5 6.5 6.5 6.5 6.5 6.5 6.5 6.5 6.2 6.5 6.5 6.5 6.4 5.9 6.3 6.5 5.5 4.0 1.4 0.9 0.4 -0.3 -3.3 -4.7 -2.9 -3.5 -2.8 -2.0 -2.1 -2.0 -1.0 -0.2 0.7 1.2 0.9 0.6 0.2 -0.2 -0.2 -0.5 0.3 0.4 -1.2 -1.9
6.5 6.5 6.5 6.5 6.5 6.5 6.4 6.4 6.5 6.5 5.9 5.9 5.6 5.3 4.6 3.6 2.9 2.5 0.9 0.8 0.4 -1.9 -1.5 -2.8 -2.4 -2.3 -1.7 -1.5 -1.6 -0.7 0.3 1.7 1.5 1.1 0.7 0.5 0.6 0.7 0.5 0.2 -0.2 -0.5 -1.1 -1.8
6.5 6.5 6.5 6.5 6.5 6.5 4.8 5.8 5.2 4.2 5.1 5.2 3.8 4.7 4.9 4.2 3.9 3.0 2.4 1.3 -0.3 -0.4 0.1 -0.5 -2.2 -2.8 -1.7 -0.8 0.6 0.2 1.2 1.3 1.0 1.0 1.1 0.4 0.2 0.6 1.0 0.6 0.1 -0.2 -0.2 -0.5
6.5 6.5 6.5 6.5 6.5 6.5 4.7 4.0 4.7 4.2 4.2 4.3 4.0 3.4 3.1 4.5 2.6 2.5 1.4 1.5 1.2 1.2 1.8 1.6 0.3 -1.0 -0.1 0.9 0.3 0.0 0.1 0.9 1.5 0.6 0.5 0.5 0.2 -0.1 0.2 0.5 0.9 0.8 0.4 0.4
6.5 6.5 6.5 6.5 6.5 5.7 4.4 3.6 3.2 3.9 3.0 4.2 4.2 4.6 4.4 3.9 3.0 2.3 0.9 1.7 2.8 1.2 0.9 1.9 2.1 1.6 1.4 1.1 0.5 0.3 0.1 1.2 1.6 1.3 1.1 0.3 0.3 0.1 -0.4 -0.3 0.4 0.5 0.3 1.4
6.3 6.5 6.5 6.5 6.2 6.6 6.4 5.7 5.3 4.2 3.8 4.5 5.1 5.3 4.9 3.0 1.4 0.7 -0.5 0.1 1.1 2.6 -0.4 0.5 0.4 -0.4 -1.2 -0.7 -0.2 1.0 0.9 1.1 0.1 -0.7 -1.2 -1.0 -0.5 -0.3 0.1 -0.2 -0.6 0.2 0.9 1.4
Wind_Speed
6 4 9 17 9 5 4 4 4 5 4 4 8 7 16 3 5 8 8 9 10 12 8 10 10 9 9 9 9 10 11 11 9 5 5 6 7 5 4 8 11 13 13 14
2 11 19 8 10 8 6 4 11 12 11 8 8 12 11 4 6 7 9 8 9 7 8 11 11 11 11 9 9 10 10 12 9 7 4 3 4 2 5 6 10 15 15 16
15 4 11 11 7 10 13 13 10 10 7 5 5 7 7 3 5 4 7 7 8 13 15 12 11 12 10 11 11 10 11 10 11 10 5 4 4 3 3 3 3 6 15 15
9 13 5 12 13 12 7 11 10 7 2 4 2 5 7 6 7 5 7 9 11 13 12 14 13 15 15 11 13 12 12 12 11 12 10 8 9 6 4 4 3 5 13 14
8 6 16 7 8 9 11 9 10 6 6 1 5 2 7 2 6 9 8 11 12 14 16 16 18 16 14 13 11 10 11 11 11 11 14 10 6 4 3 4 8 6 6 13
6 2 8 9 9 13 1 4 4 1 2 4 9 6 5 5 7 6 6 7 11 14 15 13 13 11 12 10 10 9 11 11 12 12 8 12 8 8 5 6 7 6 5 5
3 5 2 3 4 8 6 4 2 1 1 6 6 4 10 7 9 8 10 10 9 14 15 15 16 14 13 14 13 11 13 12 13 14 13 10 12 9 10 8 8 6 6 4
12 7 11 6 8 7 11 10 5 6 5 4 2 6 6 8 7 8 9 10 7 10 13 17 18 16 16 15 15 15 16 14 14 14 14 12 8 7 6 5 4 4 5 5
6 6 6 8 8 12 6 13 8 5 2 2 4 6 8 8 7 7 9 6 8 11 14 17 17 16 16 16 17 16 15 15 15 15 12 13 8 7 6 7 5 5 5 4
4 3 6 4 5 13 8 7 4 1 5 4 4 4 6 8 12 9 8 8 8 8 10 13 14 16 15 14 14 15 14 16 13 13 11 9 7 7 6 6 8 8 7 8
3 1 5 4 6 9 5 14 3 4 5 6 3 6 7 8 8 9 9 8 8 8 10 13 14 14 13 12 14 16 16 16 15 14 11 8 7 8 9 12 13 14 11 12
4 5 5 10 5 4 9 9 10 5 4 2 3 8 5 6 7 3 9 8 6 7 7 9 11 12 14 15 15 16 15 16 13 11 12 16 15 15 19 19 18 13 13 12
9 4 3 6 12 3 5 4 5 4 4 6 6 4 4 3 2 6 6 8 7 5 5 6 8 12 14 15 16 16 16 16 16 15 17 16 17 19 18 17 15 10 13 11
7 5 8 11 5 4 5 6 5 5 4 5 5 4 5 7 8 7 7 8 7 7 6 6 6 9 11 13 14 15 16 17 18 19 18 18 18 19 12 6 8 12 13 13
2 6 9 14 11 16 5 5 7 9 6 9 4 8 10 9 9 9 7 5 6 8 7 9 9 9 9 9 10 12 13 16 17 18 19 21 19 17 12 9 9 8 9 8
3 6 10 10 9 11 12 11 10 7 5 4 2 8 6 10 8 6 8 6 7 9 10 9 8 6 8 9 9 8 9 12 15 16 17 15 10 9 8 5 6 6 5 6
5 1 5 3 5 6 7 13 7 4 6 5 4 4 7 7 9 9 11 8 9 10 12 11 11 13 12 7 6 6 6 6 9 11 9 10 8 7 5 5 5 5 5 6
8 4 1 4 1 3 5 7 13 15 13 9 6 6 14 15 11 9 7 8 9 10 10 12 10 6 7 7 8 8 9 7 9 8 8 7 7 6 6 5 5 6 4 6
15 7 3 2 4 5 4 2 5 6 8 7 9 9 15 11 6 8 9 12 15 13 13 10 9 7 11 10 10 9 8 8 9 8 8 7 7 7 7 6 6 6 7 7
11 10 3 3 3 3 6 6 0 5 5 2 3 2 6 4 0 6 3 2 10 7 4 6 9 12 13 12 11 11 9 9 8 7 7 7 7 8 7 8 8 4 7 8
4 3 10 1 3 5 10 7 2 4 6 3 1 4 2 5 6 7 8 8 4 1 5 9 7 11 13 13 12 10 10 9 9 9 9 8 8 8 8 8 7 8 9 10
5 5 4 3 2 6 3 3 4 5 3 1 4 6 6 7 10 8 8 7 3 5 5 8 11 10 11 11 11 11 10 10 10 10 10 9 9 7 7 10 9 9 10 10
3 5 2 6 5 4 4 5 3 3 5 4 6 2 6 3 8 12 8 6 5 6 6 5 12 13 9 9 10 13 10 11 11 12 11 10 10 8 8 9 9 8 8 7
5 0 2 2 3 4 7 7 4 2 8 7 5 6 5 4 4 5 6 6 6 8 8 6 8 12 10 9 9 12 12 12 12 12 11 9 10 10 9 6 5 6 6 6
5 3 4 5 5 10 8 7 8 9 6 7 7 5 6 2 3 4 5 7 6 8 10 10 8 10 11 11 10 9 10 12 12 11 9 8 8 9 10 10 6 6 6 5
2 5 3 4 3 2 10 14 11 8 8 7 5 4 6 5 7 7 9 10 11 4 13 10 10 10 13 13 12 9 9 9 11 11 8 7 8 8 9 9 10 22 17 20
Wind_Direction
182 153 207 201 178 166 172 213 246 260 211 336 274 280 285 240 205 208 198 189 194 208 173 185 189 175 179 170 165 163 154 157 152 153 143 147 165 159 155 173 165 166 171 166
128 219 226 166 187 190 204 235 264 296 287 178 277 289 281 196 240 197 191 192 189 184 170 178 180 171 180 175 170 159 159 169 169 172 145 125 126 142 178 164 173 179 173 178
213 204 192 185 174 193 221 216 235 235 349 266 267 298 290 272 252 181 206 172 182 187 194 182 186 188 173 176 181 164 159 170 181 172 132 107 107 110 121 176 154 180 179 180
231 230 235 217 209 189 213 205 225 239 77 248 80 285 290 273 283 239 219 195 182 185 186 191 195 204 195 180 184 176 167 170 183 170 172 165 177 174 180 163 184 174 182 191
224 199 216 205 213 161 235 149 198 222 201 279 266 255 258 276 280 267 244 212 190 185 181 186 194 201 196 185 181 168 168 173 177 184 185 182 171 166 156 155 180 190 198 201
206 187 169 210 211 176 124 198 243 152 143 236 230 187 259 211 222 254 248 228 185 180 185 187 182 175 188 181 175 172 173 180 185 188 182 183 175 178 170 175 188 199 198 199
146 222 231 157 179 184 189 110 285 322 197 234 201 176 250 256 248 229 258 252 201 174 175 173 171 175 178 184 173 176 181 189 190 191 195 190 196 192 194 190 198 184 198 202
213 251 180 183 177 182 210 183 174 185 194 225 129 230 247 234 267 244 251 244 153 174 177 181 181 178 180 188 182 181 183 188 188 190 198 200 196 206 215 208 194 210 204 199
191 239 242 192 181 190 188 209 183 92 51 56 229 286 297 281 293 285 262 247 201 179 181 185 182 182 181 184 186 187 191 196 192 191 192 200 192 195 193 202 202 205 203 199
226 278 235 236 159 220 177 180 115 111 167 221 266 259 231 296 289 299 275 240 230 186 172 175 182 188 189 184 179 182 192 199 196 194 192 196 187 188 200 203 215 209 208 197
355 314 281 142 202 180 149 223 214 145 156 203 193 251 208 238 268 278 278 253 241 199 175 179 185 188 183 179 179 183 190 191 193 192 187 179 182 198 206 215 221 223 213 204
300 204 215 252 246 184 212 196 195 181 204 205 191 239 217 202 266 262 288 262 253 235 188 192 181 171 176 183 184 192 189 195 189 188 186 194 195 209 222 223 231 231 218 206
2 307 235 278 282 226 189 191 179 123 100 201 200 257 262 218 306 257 260 279 254 244 222 183 172 180 182 186 190 191 191 191 192 188 198 207 215 228 239 227 225 206 211 210
345 243 236 223 228 171 189 183 198 175 165 186 225 246 271 259 255 245 255 262 259 237 207 218 206 197 192 192 191 190 192 191 189 194 200 209 215 229 240 221 194 195 202 208
290 281 257 243 229 248 235 185 177 212 190 216 216 211 250 256 256 248 238 229 206 241 219 217 214 212 202 191 187 194 187 186 188 195 198 207 213 218 218 198 199 204 205 211
169 265 303 243 211 215 229 233 216 199 228 243 209 261 258 255 280 283 235 223 224 213 235 219 219 233 216 209 194 186 179 177 179 190 199 205 201 194 190 171 161 165 165 160
256 268 305 244 172 142 258 223 223 220 200 156 204 218 267 241 242 251 257 215 227 217 213 212 211 217 219 193 149 151 126 122 168 182 172 168 161 161 148 132 137 145 135 123
267 351 266 279 108 170 266 202 228 239 254 236 222 242 263 268 270 275 256 231 225 224 211 215 224 190 138 130 111 121 126 129 132 141 138 137 136 132 128 134 134 121 126 135
219 209 273 329 328 288 311 210 203 178 256 227 213 230 256 273 266 293 237 216 227 221 226 214 203 133 132 131 130 127 125 125 128 136 135 135 138 135 134 137 133 124 120 109
200 198 178 238 133 291 255 310 329 134 289 308 174 182 285 292 64 254 329 311 275 249 199 153 139 134 133 140 136 135 131 124 124 126 124 126 130 136 128 115 112 96 102 93
144 169 214 190 264 261 259 310 359 131 235 202 112 294 327 228 230 273 301 319 4 169 155 124 131 137 136 142 139 128 125 122 122 117 116 109 104 105 108 102 107 106 98 93
189 158 197 183 208 277 304 262 130 250 255 355 31 7 343 314 304 292 312 327 45 106 128 122 126 126 135 139 126 120 112 120 117 111 102 98 99 104 110 108 99 100 105 100
266 192 172 185 221 261 224 262 226 170 278 214 130 237 267 255 311 334 331 15 56 93 104 96 125 118 111 109 120 113 120 114 108 101 97 93 88 84 92 102 104 100 102 107
309 40 226 22 310 274 291 302 276 210 235 247 236 194 198 254 318 347 22 36 61 62 46 83 115 105 101 101 102 111 114 112 107 104 103 100 96 89 78 77 86 103 110 111
212 352 326 271 323 329 295 266 255 257 269 292 298 300 320 303 45 76 78 62 62 71 76 63 58 81 81 85 90 100 108 119 115 112 111 102 94 90 84 64 50 68 46 82
205 179 152 231 289 252 273 290 320 264 244 240 252 333 13 47 79 88 71 69 61 40 88 73 81 72 81 70 64 63 77 95 103 94 84 89 93 92 92 91 81 66 74 81